Regional Weather Roundup
Issued by NWS

Home | Current Version | Previous Version | Text Only | Print | Product List | Glossary Off
Versions: 1 2 3 4 5 6 7 8 9 10 11 12 13 14 15 16 17 18 19 20 21 22 23 24 25 26 27

000
ASUS45 KSLC 210710
RWRUT

UTAH REGIONAL WEATHER ROUNDUP
NATIONAL WEATHER SERVICE SALT LAKE CITY UT
1200 AM MST SAT JAN 21 2017

UTZ001>011-023>025-210800-

NORTHERN UTAH

CITY           SKY/WX    TMP DP  RH WIND       PRES   REMARKS
BRIGHAM CITY     N/A     31  29  92 NW8       29.32F WCI  24
HILL AFB       LGT SNOW  32  31  94 SE7       29.29F FOG     WCI  26
LOGAN          CLOUDY    27  27 100 CALM      29.32F FOG
OGDEN          LGT SNOW  32  31  96 S9        29.29F FOG     WCI  24
SALT LAKE CITY CLOUDY    35  31  85 SE9       29.29F WCI  28
TOOELE VALLEY  CLOUDY    32  32 100 CALM      29.29F
WENDOVER       CLOUDY    27  25  93 CALM      29.30F
HEBER CITY     LGT SNOW  28  27  93 CALM      29.31F
WEST JORDAN    CLOUDY    34  33  99 S9        29.30F WCI  26

$$

UTZ011>015-024>027-210800-

CENTRAL/NORTHEAST UTAH

CITY           SKY/WX    TMP DP  RH WIND       PRES   REMARKS
PROVO AIRPORT  CLOUDY    36  28  75 S9        29.31F WCI  29
MOAB/CANYONLAN CLOUDY    36  33  89 E5        29.38F WCI  32
DELTA          CLOUDY    32  32 100 CALM      29.30S VSB 1/2
PRICE          CLOUDY    29  29 100 E9        29.35F WCI  20
RICHFIELD      MOCLDY    32  32 100 E3        29.32F
ROOSEVELT      CLOUDY    25  21  86 CALM      29.45F FOG
VERNAL         CLOUDY    22  19  89 CALM      29.42F FOG

$$

UTZ013>016-019>022-027-210800-

SOUTHERN UTAH

CITY           SKY/WX    TMP DP  RH WIND       PRES   REMARKS
BRYCE CANYON   SNOW      26  24  92 SE9       29.31F VSB 1/2 WCI  17
CEDAR CITY     MOCLDY    31  29  92 SW10      29.27R WCI  22
MILFORD        CLOUDY    34  32  92 SW10      29.25F WCI  26
ST GEORGE      CLOUDY    43  36  75 SE12      29.34S
HANKSVILLE     CLOUDY    36  32  87 MISG      29.39F
KANAB          CLOUDY    34  34 100 E3        29.39S
BLANDING       CLOUDY    31  31 100 SE17      29.51F WCI  19

$$

REGIONAL REPORTS     COLORADO/ARIZONA

CITY           SKY/WX    TMP DP  RH WIND       PRES   REMARKS
CRAIG, CO      CLOUDY    19  14  81 CALM      29.44F
GRAND JUNCTION CLOUDY    35  29  78 E10       29.42F WCI  27
RIFLE, CO      CLOUDY    28  26  92 CALM      29.45F
MONTROSE, CO   CLOUDY    32  19  58 E14       29.46F WCI  22
CORTEZ, CO     LGT SNOW  31  31 100 NW3       29.46F FOG
COLORADO CITY  CLOUDY    36  34  93 MISG      29.36S
PAGE, AZ       LGT RAIN  39  31  72 S6        29.35F WCI  35
GRAND CANYON   LGT SNOW  30  30 100 SW15      29.37F FOG     WCI  19
KINGMAN, AZ    CLOUDY    42  39  89 SW25G38   29.39R
FLAGSTAFF, AZ  SNOW      30  29  96 SW20G28   29.38F VSB 1/2 WCI  17

$$

REGIONAL REPORTS    NEVADA/IDAHO/WYOMING

CITY           SKY/WX    TMP DP  RH WIND       PRES   REMARKS
LAS VEGAS, NV  PTCLDY    48  33  56 SW14      29.30R
ELY, NY        LGT SNOW  28  27  96 S6        29.25S FOG     WCI  22
ELKO, NV       LGT SNOW  29  26  89 CALM      29.26R FOG
POCATELLO, ID  CLOUDY    27  25  92 NE7       29.30F WCI  19
BURLEY, ID     CLOUDY    31  28  89 N3        29.26R
FORT BRIDGER,  CLOUDY    13  13 100 CALM      29.36F FOG
EVANSTON, WY   CLOUDY    15  10  80 E12       29.30F WCI   2
ROCK SPRINGS,  CLOUDY    21  15  78 S10       29.36F WCI  10

$$




USA.gov is the U.S. government's official web portal to all federal, state and local government web resources and services.